Simultaneous Nadir Overpasses (SNOs) Predictions

Prediction of SNOs between AQUA and METOP-B Satellite Orbit:

Table of predicted SNOs for the next 14.0 days since TLE Epoch: 11/30/2012
Index Date (AQUA) Time (AQUA) AQUA Lat,Lon Date (METOP-B) Time (METOP-B) METOP-B Lat,Lon Distance(km) Time Diff (sec)
1 12/02/2012 15:49:04 -73.37, 117.81 12/02/2012 15:47:54 -73.35, 116.32 47.23 70
2 12/02/2012 16:38:39 73.75, -75.37 12/02/2012 16:38:25 73.74, -75.43 2.14 14
3 12/02/2012 17:28:06 -73.83, 92.11 12/02/2012 17:29:06 -73.83, 92.10 0.40 60
4 12/05/2012 11:23:27 -73.47,-175.99 12/05/2012 11:22:16 -73.39,-177.17 38.36 71
5 12/05/2012 12:13:00 73.75, -8.96 12/05/2012 12:12:47 73.78, -8.92 3.29 13
6 12/05/2012 13:02:27 -73.82, 158.53 12/05/2012 13:03:29 -73.82, 158.49 1.37 62
7 12/08/2012 06:57:50 -73.48,-109.60 12/08/2012 06:56:39 -73.42,-110.70 35.42 71
8 12/08/2012 07:47:23 73.76, 57.43 12/08/2012 07:47:11 73.76, 57.43 0.81 12
9 12/08/2012 08:36:50 -73.83,-135.07 12/08/2012 08:37:52 -73.84,-135.04 2.22 62
10 12/11/2012 02:32:13 -73.44, -43.11 12/11/2012 02:31:02 -73.43, -44.26 36.19 71
11 12/11/2012 03:21:47 73.78, 123.79 12/11/2012 03:21:34 73.77, 123.87 3.04 13
12 12/11/2012 04:11:14 -73.84, -68.70 12/11/2012 04:12:15 -73.85, -68.60 3.60 61
13 12/13/2012 22:06:36 -73.41, 23.34 12/13/2012 22:05:26 -73.32, 21.93 46.19 70
14 12/13/2012 22:56:10 73.76,-169.76 12/13/2012 22:55:56 73.76,-169.73 1.10 14
15 12/13/2012 23:45:37 -73.81, -2.24 12/13/2012 23:46:38 -73.80, -2.31 2.55 61




NCC Satellite Simultaneous Nadir Overpasses (SNOs) Prediction Service
